{"data":{"norad_id":57942,"intl_designator":"2023-148H","name":"STARLINK-30455","alt_names":[],"object_type":"PAYLOAD","status":"ACTIVE","operator":null,"country":"US","launch_date":"2023-09-25","launch_site_code":"AFWTR","launch_vehicle":null,"mission":null,"orbit_class":"UNKNOWN","rcs_meters":null,"size_class":null,"mass_kg":null,"dimensions":null,"purposes":["comms"],"wikipedia_slug":null,"has_3d_model":false,"image_url":null,"decayed_at":null,"tle_current":{"epoch":"2026-09-20T11:05:04.368768Z","epoch_age_seconds":140993,"freshness":"FRESH","line1":"1 57942U 23148H   26263.46185612  .00001723  00000+0  63704-4 0  9993","line2":"2 57942  53.1588 197.9852 0001370  86.3291 273.7868 15.33552662168262","mean_motion":15.33552662,"eccentricity":0.000137,"inclination_deg":53.1588,"raan_deg":197.9852,"arg_perigee_deg":86.3291,"mean_anomaly_deg":273.7868,"bstar":6.3704e-5,"rev_number":16826,"period_min":93.899612036929,"perigee_km":464.28532655142,"apogee_km":466.16040715494,"semimajor_km":6843.3598668532,"source":"CELESTRAK","updated_at":"2026-09-21T09:00:33.745515Z"}}}